Location: Gull Harbor
(47.1000°N, 122.9000°W)
Time: 20:37:41
(UTC-07:00)

STARLINK-2717 - Pass Details

Date: 01 August 2021
Orbit: 546 x 548 km, 53.1° (Epoch: 24 September)

Event Time Altitude Azimuth Distance (km) Brightness Sun altitude
Rises 20:57:23 0° 295° (WNW) 2,727 10.2 -2.9°
Reaches altitude 10° 20:59:46 10° 286° (WNW) 1,829 8.0 -3.2°
Maximum altitude 21:03:31 33° 222° (SW) 932 4.9 -3.8°
Drops below altitude 10° 21:07:14 10° 158° (SSE) 1,816 5.8 -4.3°
Enters shadow 21:08:59 - 150° (SSE) 2,466 6.4 -4.5°
